| time (UTC) | temp F | wind direction | speed knots | gust knots | rain 1hr in | rain 24hr in | rain mn in | humidity % | barometer mb |
| 20260503211016 | 65 | 207 | 1.7 | 6.1 | 0.00 | 0.00 | 0.00 | 60 | 1013.3 |
| 20260503210515 | 66 | 44 | 0.0 | 4.3 | 0.00 | 0.00 | 0.00 | 60 | 1013.5 |
| 20260503210033 | 66 | 217 | 0.9 | 4.3 | 0.00 | 0.00 | 0.00 | 60 | 1013.4 |
| 20260503205513 | 66 | 240 | 0.9 | 4.3 | 0.00 | 0.00 | 0.00 | 59 | 1013.5 |
| 20260503205022 | 66 | 209 | 0.0 | 4.3 | 0.00 | 0.00 | 0.00 | 60 | 1013.5 |
| 20260503204532 | 65 | 220 | 0.0 | 4.3 | 0.00 | 0.00 | 0.00 | 61 | 1013.4 |
| 20260503204013 | 66 | 211 | 0.9 | 4.3 | 0.00 | 0.00 | 0.00 | 59 | 1013.6 |
| 20260503203514 | 65 | 194 | 0.9 | 3.5 | 0.00 | 0.00 | 0.00 | 60 | 1013.6 |
| 20260503203035 | 65 | 0 | 0.0 | 6.1 | 0.00 | 0.00 | 0.00 | 61 | 1013.6 |
| 20260503202518 | 64 | 213 | 0.0 | 6.1 | 0.00 | 0.00 | 0.00 | 62 | 1013.7 |
| 20260503202013 | 65 | 224 | 0.9 | 3.5 | 0.00 | 0.00 | 0.00 | 63 | 1013.8 |
| 20260503201532 | 65 | 84 | 0.9 | 3.5 | 0.00 | 0.00 | 0.00 | 63 | 1013.7 |
| 20260503201013 | 65 | 60 | 0.0 | 3.5 | 0.00 | 0.00 | 0.00 | 60 | 1013.7 |
| 20260503200514 | 65 | 222 | 0.9 | 3.5 | 0.00 | 0.00 | 0.00 | 59 | 1013.8 |
| 20260503200034 | 66 | 214 | 0.0 | 2.6 | 0.00 | 0.00 | 0.00 | 59 | 1013.6 |
| 20260503195512 | 66 | 175 | 0.0 | 3.5 | 0.00 | 0.00 | 0.00 | 58 | 1013.7 |
| 20260503195015 | 66 | 229 | 0.0 | 3.5 | 0.00 | 0.00 | 0.00 | 59 | 1013.7 |
| 20260503194533 | 66 | 215 | 0.0 | 2.6 | 0.00 | 0.00 | 0.00 | 58 | 1013.8 |
| 20260503194013 | 65 | 0 | 0.0 | 2.6 | 0.00 | 0.00 | 0.00 | 59 | 1013.7 |
| 20260503193518 | 65 | 236 | 0.9 | 3.5 | 0.00 | 0.00 | 0.00 | 58 | 1013.9 |
| 20260503193036 | 66 | 0 | 0.0 | 3.5 | 0.00 | 0.00 | 0.00 | 60 | 1013.7 |
| 20260503192514 | 66 | 0 | 0.9 | 2.6 | 0.00 | 0.00 | 0.00 | 59 | 1013.8 |
| 20260503192017 | 66 | 37 | 0.0 | 3.5 | 0.00 | 0.00 | 0.00 | 58 | 1013.8 |
| 20260503191535 | 67 | 0 | 0.0 | 3.5 | 0.00 | 0.00 | 0.00 | 57 | 1013.9 |
| 20260503191013 | 67 | 215 | 0.0 | 1.7 | 0.00 | 0.00 | 0.00 | 55 | 1013.8 |
| 20260503190515 | 67 | 0 | 0.0 | 1.7 | 0.00 | 0.00 | 0.00 | 57 | 1013.8 |
| 20260503190035 | 66 | 0 | 0.0 | 4.3 | 0.00 | 0.00 | 0.00 | 59 | 1013.9 |
| 20260503185512 | 65 | 0 | 0.0 | 4.3 | 0.00 | 0.00 | 0.00 | 59 | 1013.7 |
| 20260503185015 | 65 | 136 | 0.0 | 1.7 | 0.00 | 0.00 | 0.00 | 59 | 1013.8 |
| 20260503184534 | 64 | 206 | 0.0 | 3.5 | 0.00 | 0.00 | 0.00 | 60 | 1013.8 |
| 20260503184014 | 64 | 0 | 0.0 | 3.5 | 0.00 | 0.00 | 0.00 | 61 | 1013.8 |
| 20260503183522 | 64 | 0 | 0.0 | 2.6 | 0.00 | 0.00 | 0.00 | 59 | 1013.9 |
| 20260503183038 | 65 | 70 | 0.0 | 2.6 | 0.00 | 0.00 | 0.00 | 59 | 1013.9 |
| 20260503182513 | 65 | 0 | 0.9 | 2.6 | 0.00 | 0.00 | 0.00 | 57 | 1013.9 |
| 20260503182015 | 65 | 0 | 0.0 | 2.6 | 0.00 | 0.00 | 0.00 | 60 | 1013.9 |
| 20260503181606 | 65 | 71 | 0.0 | 2.6 | 0.00 | 0.00 | 0.00 | 60 | 1013.7 |
| 20260503181014 | 65 | 194 | 0.0 | 2.6 | 0.00 | 0.00 | 0.00 | 61 | 1013.8 |
| 20260503180514 | 65 | 213 | 0.0 | 2.6 | 0.00 | 0.00 | 0.00 | 61 | 1013.7 |
| 20260503180031 | 64 | 0 | 0.0 | 3.5 | 0.00 | 0.00 | 0.00 | 62 | 1013.7 |
| 20260503175513 | 63 | 169 | 0.9 | 3.5 | 0.00 | 0.00 | 0.00 | 62 | 1013.9 |
| 20260503175015 | 63 | 221 | 0.0 | 2.6 | 0.00 | 0.00 | 0.00 | 65 | 1013.8 |
| 20260503174531 | 62 | 0 | 0.0 | 2.6 | 0.00 | 0.00 | 0.00 | 65 | 1013.8 |
| 20260503174016 | 63 | 71 | 0.0 | 2.6 | 0.00 | 0.00 | 0.00 | 65 | 1013.8 |
| 20260503173514 | 63 | 223 | 0.0 | 3.5 | 0.00 | 0.00 | 0.00 | 66 | 1013.7 |
| 20260503173045 | 62 | 0 | 0.0 | 3.5 | 0.00 | 0.00 | 0.00 | 67 | 1013.7 |
| 20260503172515 | 61 | 0 | 0.0 | 2.6 | 0.00 | 0.00 | 0.00 | 68 | 1013.7 |
| 20260503172014 | 61 | 179 | 0.0 | 2.6 | 0.00 | 0.00 | 0.00 | 69 | 1013.8 |
| 20260503171531 | 61 | 51 | 0.0 | 2.6 | 0.00 | 0.00 | 0.00 | 68 | 1013.8 |
| 20260503171012 | 61 | 186 | 0.0 | 4.3 | 0.00 | 0.00 | 0.00 | 69 | 1013.8 |
| 20260503170517 | 60 | 215 | 0.0 | 4.3 | 0.00 | 0.00 | 0.00 | 70 | 1013.9 |
| 20260503150520 | 56 | 0 | 0.0 | 0.9 | 0.00 | 0.00 | 0.00 | 82 | 1013.5 |
| 20260503131016 | 54 | 0 | 0.0 | 0.0 | 0.00 | 0.00 | 0.00 | 84 | 1012.1 |
| 20260503130516 | 54 | 0 | 0.0 | 0.0 | 0.00 | 0.00 | 0.00 | 84 | 1012.0 |
| 20260503110517 | 54 | 0 | 0.0 | 0.9 | 0.00 | 0.00 | 0.00 | 83 | 1012.1 |
| 20260503081537 | 55 | 0 | 0.0 | 0.9 | 0.00 | 0.00 | 0.00 | 81 | 1012.8 |
| 20260503081017 | 55 | 0 | 0.0 | 0.9 | 0.00 | 0.00 | 0.00 | 81 | 1012.8 |
| 20260503080517 | 55 | 219 | 0.0 | 0.9 | 0.00 | 0.00 | 0.00 | 81 | 1012.7 |
| 20260503072516 | 55 | 0 | 0.0 | 0.0 | 0.00 | 0.00 | 0.00 | 82 | 1012.9 |
| 20260503072016 | 55 | 0 | 0.0 | 0.9 | 0.00 | 0.00 | 0.00 | 82 | 1012.8 |
| 20260503071537 | 55 | 0 | 0.0 | 0.9 | 0.00 | 0.00 | 0.00 | 82 | 1012.9 |
| 20260503071014 | 55 | 0 | 0.0 | 0.0 | 0.00 | 0.00 | 0.00 | 82 | 1012.8 |
| 20260503070515 | 55 | 0 | 0.0 | 0.9 | 0.00 | 0.00 | 0.00 | 82 | 1012.9 |
| 20260503055016 | 55 | 0 | 0.0 | 0.9 | 0.00 | 0.00 | 0.00 | 80 | 1013.1 |
| 20260503054531 | 55 | 0 | 0.0 | 0.9 | 0.00 | 0.00 | 0.00 | 80 | 1013.1 |
| 20260503054019 | 55 | 0 | 0.0 | 0.9 | 0.00 | 0.00 | 0.00 | 81 | 1013.1 |
| 20260503053514 | 55 | 49 | 0.0 | 0.9 | 0.00 | 0.00 | 0.00 | 81 | 1013.2 |
| 20260503053039 | 55 | 0 | 0.0 | 0.9 | 0.00 | 0.00 | 0.00 | 81 | 1013.1 |
| 20260503052526 | 55 | 208 | 0.0 | 0.9 | 0.00 | 0.00 | 0.00 | 81 | 1013.2 |
| 20260503052017 | 55 | 0 | 0.0 | 0.9 | 0.00 | 0.00 | 0.00 | 81 | 1013.3 |
| 20260503051534 | 55 | 0 | 0.0 | 0.9 | 0.00 | 0.00 | 0.00 | 80 | 1013.3 |
| 20260503051018 | 55 | 0 | 0.0 | 0.9 | 0.00 | 0.00 | 0.00 | 80 | 1013.2 |
| 20260503050513 | 55 | 0 | 0.0 | 0.9 | 0.00 | 0.00 | 0.00 | 80 | 1013.3 |
| 20260503050034 | 55 | 0 | 0.0 | 0.9 | 0.00 | 0.00 | 0.00 | 80 | 1013.2 |
| 20260503045517 | 55 | 0 | 0.0 | 0.9 | 0.00 | 0.00 | 0.00 | 80 | 1013.2 |
| 20260503045016 | 55 | 0 | 0.0 | 0.9 | 0.00 | 0.00 | 0.00 | 80 | 1013.0 |
| 20260503044604 | 55 | 80 | 0.0 | 0.9 | 0.00 | 0.00 | 0.00 | 80 | 1013.2 |
| 20260503044014 | 55 | 209 | 0.0 | 0.9 | 0.00 | 0.00 | 0.00 | 80 | 1013.1 |
| 20260503043516 | 55 | 232 | 0.0 | 2.6 | 0.00 | 0.00 | 0.00 | 80 | 1013.1 |
| 20260503043033 | 55 | 89 | 0.0 | 2.6 | 0.00 | 0.00 | 0.00 | 81 | 1013.2 |
| 20260503042514 | 55 | 67 | 0.0 | 2.6 | 0.00 | 0.00 | 0.00 | 81 | 1013.2 |
| 20260503042015 | 55 | 0 | 0.0 | 2.6 | 0.00 | 0.00 | 0.00 | 81 | 1013.1 |
| 20260503041533 | 55 | 0 | 0.0 | 0.9 | 0.00 | 0.00 | 0.00 | 80 | 1013.0 |
| 20260503041018 | 55 | 0 | 0.0 | 0.9 | 0.00 | 0.00 | 0.00 | 80 | 1012.9 |
| 20260503040514 | 56 | 0 | 0.0 | 0.9 | 0.00 | 0.00 | 0.00 | 80 | 1012.9 |
| 20260503040034 | 56 | 0 | 0.0 | 0.9 | 0.00 | 0.00 | 0.00 | 79 | 1012.9 |
| 20260503035515 | 56 | 0 | 0.0 | 0.9 | 0.00 | 0.00 | 0.00 | 79 | 1012.9 |
| 20260503035014 | 56 | 0 | 0.0 | 0.9 | 0.00 | 0.00 | 0.00 | 79 | 1012.8 |
| 20260503034534 | 56 | 0 | 0.0 | 0.9 | 0.00 | 0.00 | 0.00 | 78 | 1012.8 |
| 20260503034013 | 56 | 0 | 0.0 | 0.9 | 0.00 | 0.00 | 0.00 | 78 | 1012.8 |
| 20260503033515 | 56 | 0 | 0.0 | 0.9 | 0.00 | 0.00 | 0.00 | 79 | 1012.8 |
| 20260503033037 | 56 | 0 | 0.0 | 0.9 | 0.00 | 0.00 | 0.00 | 79 | 1012.7 |
| 20260503032514 | 56 | 0 | 0.0 | 0.9 | 0.00 | 0.00 | 0.00 | 79 | 1012.6 |
| 20260503032017 | 56 | 0 | 0.0 | 0.9 | 0.00 | 0.00 | 0.00 | 79 | 1012.5 |
| 20260503031532 | 56 | 210 | 0.0 | 0.9 | 0.00 | 0.00 | 0.00 | 79 | 1012.5 |
| 20260503031016 | 56 | 0 | 0.0 | 0.9 | 0.00 | 0.00 | 0.00 | 78 | 1012.4 |
| 20260503030518 | 56 | 0 | 0.0 | 0.9 | 0.00 | 0.00 | 0.00 | 78 | 1012.3 |
| 20260503030040 | 56 | 0 | 0.0 | 0.9 | 0.00 | 0.00 | 0.00 | 78 | 1012.2 |
| 20260503025515 | 56 | 0 | 0.0 | 1.7 | 0.00 | 0.00 | 0.00 | 78 | 1012.1 |
| 20260503025016 | 56 | 0 | 0.0 | 1.7 | 0.00 | 0.00 | 0.00 | 78 | 1012.1 |
| 20260503024533 | 56 | 213 | 0.0 | 1.7 | 0.00 | 0.00 | 0.00 | 78 | 1012.1 |
| 20260503024015 | 56 | 64 | 0.0 | 2.6 | 0.00 | 0.00 | 0.00 | 78 | 1012.0 |
| 20260503023519 | 56 | 211 | 0.0 | 2.6 | 0.00 | 0.00 | 0.00 | 78 | 1012.0 |
| 20260503023040 | 56 | 0 | 0.0 | 1.7 | 0.00 | 0.00 | 0.00 | 78 | 1012.0 |
| 20260503022516 | 57 | 0 | 0.0 | 6.1 | 0.00 | 0.00 | 0.00 | 77 | 1011.9 |
| 20260503022018 | 57 | 151 | 0.9 | 6.1 | 0.00 | 0.00 | 0.00 | 76 | 1012.0 |
| 20260503021532 | 57 | 96 | 0.9 | 5.2 | 0.00 | 0.00 | 0.00 | 75 | 1012.0 |
| 20260503021020 | 57 | 52 | 0.0 | 4.3 | 0.00 | 0.00 | 0.00 | 75 | 1012.1 |
| 20260503020517 | 57 | 0 | 0.9 | 4.3 | 0.00 | 0.00 | 0.00 | 74 | 1012.1 |
| 20260503020036 | 58 | 223 | 0.0 | 4.3 | 0.00 | 0.00 | 0.00 | 74 | 1012.0 |
| 20260503015513 | 58 | 0 | 0.0 | 1.7 | 0.00 | 0.00 | 0.00 | 73 | 1012.1 |
| 20260503015019 | 58 | 0 | 0.0 | 3.5 | 0.00 | 0.00 | 0.00 | 72 | 1012.1 |
| 20260503014531 | 58 | 57 | 0.0 | 3.5 | 0.00 | 0.00 | 0.00 | 73 | 1012.1 |
| 20260503014013 | 58 | 0 | 0.0 | 1.7 | 0.00 | 0.00 | 0.00 | 73 | 1012.1 |
| 20260503013514 | 59 | 188 | 0.0 | 1.7 | 0.00 | 0.00 | 0.00 | 72 | 1012.1 |
| 20260503013032 | 59 | 134 | 0.0 | 1.7 | 0.00 | 0.00 | 0.00 | 72 | 1012.2 |
| 20260503012520 | 59 | 0 | 0.0 | 1.7 | 0.00 | 0.00 | 0.00 | 73 | 1012.1 |
| 20260503012015 | 59 | 0 | 0.0 | 4.3 | 0.00 | 0.00 | 0.00 | 72 | 1012.2 |
| 20260503011533 | 59 | 0 | 0.0 | 4.3 | 0.00 | 0.00 | 0.00 | 72 | 1012.2 |
| 20260503011015 | 60 | 263 | 0.0 | 4.3 | 0.00 | 0.00 | 0.00 | 71 | 1012.1 |
| 20260503010513 | 60 | 262 | 0.0 | 3.5 | 0.00 | 0.00 | 0.00 | 71 | 1012.2 |
| 20260503010037 | 60 | 192 | 0.0 | 3.5 | 0.00 | 0.00 | 0.00 | 71 | 1012.2 |
| 20260503005514 | 60 | 242 | 0.0 | 3.5 | 0.00 | 0.00 | 0.00 | 71 | 1012.1 |
| 20260503005013 | 60 | 51 | 0.9 | 4.3 | 0.00 | 0.00 | 0.00 | 71 | 1012.1 |
| 20260503004535 | 60 | 211 | 0.0 | 4.3 | 0.00 | 0.00 | 0.00 | 71 | 1012.2 |
| 20260503004016 | 60 | 36 | 0.9 | 4.3 | 0.00 | 0.00 | 0.00 | 71 | 1012.1 |
| 20260503003516 | 60 | 56 | 0.9 | 3.5 | 0.00 | 0.00 | 0.00 | 71 | 1012.1 |
| 20260503003035 | 60 | 87 | 0.0 | 4.3 | 0.00 | 0.00 | 0.00 | 71 | 1012.1 |
| 20260503002514 | 60 | 135 | 0.9 | 4.3 | 0.00 | 0.00 | 0.00 | 71 | 1012.2 |
| 20260503002013 | 61 | 194 | 0.0 | 5.2 | 0.00 | 0.00 | 0.00 | 71 | 1012.1 |
| 20260503001532 | 61 | 290 | 0.9 | 5.2 | 0.00 | 0.00 | 0.00 | 70 | 1012.1 |
| 20260503001015 | 61 | 286 | 0.9 | 7.0 | 0.00 | 0.00 | 0.00 | 70 | 1012.2 |
| 20260503000515 | 61 | 212 | 0.9 | 7.0 | 0.00 | 0.00 | 0.00 | 70 | 1012.2 |
| 20260503000043 | 62 | 226 | 0.9 | 6.1 | 0.00 | 0.00 | 0.00 | 69 | 1012.2 |
| 20260502235515 | 62 | 147 | 0.0 | 3.5 | 0.00 | 0.00 | 0.00 | 69 | 1012.3 |
| 20260502235014 | 62 | 193 | 0.0 | 3.5 | 0.00 | 0.00 | 0.00 | 70 | 1012.2 |
| 20260502234548 | 62 | 215 | 0.9 | 4.3 | 0.00 | 0.00 | 0.00 | 69 | 1012.2 |
| 20260502234016 | 62 | 59 | 0.0 | 4.3 | 0.00 | 0.00 | 0.00 | 69 | 1012.2 |
| 20260502233514 | 62 | 143 | 0.9 | 4.3 | 0.00 | 0.00 | 0.00 | 69 | 1012.3 |
| 20260502233032 | 63 | 0 | 0.9 | 5.2 | 0.00 | 0.00 | 0.00 | 69 | 1012.4 |
| 20260502232514 | 63 | 200 | 0.9 | 5.2 | 0.00 | 0.00 | 0.00 | 69 | 1012.4 |
| 20260502232014 | 63 | 0 | 0.9 | 4.3 | 0.00 | 0.00 | 0.00 | 69 | 1012.5 |
| 20260502231535 | 63 | 0 | 0.9 | 7.8 | 0.00 | 0.00 | 0.00 | 68 | 1012.4 |
| 20260502231018 | 63 | 43 | 0.0 | 7.8 | 0.00 | 0.00 | 0.00 | 68 | 1012.6 |
| 20260502230514 | 63 | 237 | 0.0 | 1.7 | 0.00 | 0.00 | 0.00 | 68 | 1012.6 |
| 20260502230032 | 64 | 231 | 0.0 | 4.3 | 0.00 | 0.00 | 0.00 | 67 | 1012.7 |
| 20260502225515 | 63 | 155 | 0.9 | 4.3 | 0.00 | 0.00 | 0.00 | 68 | 1012.8 |
| 20260502225015 | 63 | 64 | 0.9 | 4.3 | 0.00 | 0.00 | 0.00 | 67 | 1012.9 |
| 20260502224533 | 64 | 224 | 0.9 | 5.2 | 0.00 | 0.00 | 0.00 | 67 | 1012.9 |
| 20260502224019 | 64 | 65 | 0.9 | 5.2 | 0.00 | 0.00 | 0.00 | 66 | 1013.0 |
| 20260502223515 | 65 | 220 | 0.0 | 2.6 | 0.00 | 0.00 | 0.00 | 67 | 1013.1 |
| 20260502223039 | 64 | 137 | 0.0 | 2.6 | 0.00 | 0.00 | 0.00 | 67 | 1013.0 |
| 20260502222516 | 65 | 46 | 0.0 | 3.5 | 0.00 | 0.00 | 0.00 | 66 | 1013.1 |
| 20260502222016 | 65 | 120 | 0.0 | 3.5 | 0.00 | 0.00 | 0.00 | 66 | 1013.1 |
| 20260502221533 | 66 | 238 | 0.0 | 7.0 | 0.00 | 0.00 | 0.00 | 65 | 1013.3 |
| 20260502221016 | 65 | 248 | 0.0 | 7.0 | 0.00 | 0.00 | 0.00 | 65 | 1013.5 |
| 20260502220514 | 65 | 210 | 0.0 | 6.1 | 0.00 | 0.00 | 0.00 | 65 | 1013.5 |
| 20260502220039 | 66 | 19 | 0.0 | 4.3 | 0.00 | 0.00 | 0.00 | 65 | 1013.5 |
| 20260502215515 | 65 | 32 | 0.0 | 4.3 | 0.00 | 0.00 | 0.00 | 65 | 1013.6 |
| 20260502215015 | 65 | 170 | 0.0 | 6.1 | 0.00 | 0.00 | 0.00 | 65 | 1013.6 |
| 20260502214538 | 65 | 0 | 0.0 | 6.1 | 0.00 | 0.00 | 0.00 | 65 | 1013.7 |
| 20260502214019 | 65 | 55 | 0.0 | 6.1 | 0.00 | 0.00 | 0.00 | 65 | 1013.7 |
| 20260502213513 | 65 | 200 | 0.0 | 6.1 | 0.00 | 0.00 | 0.00 | 66 | 1013.8 |
| 20260502213031 | 65 | 9 | 0.0 | 2.6 | 0.00 | 0.00 | 0.00 | 65 | 1013.8 |
| 20260502212516 | 66 | 165 | 0.0 | 5.2 | 0.00 | 0.00 | 0.00 | 65 | 1013.9 |
| 20260502212013 | 65 | 151 | 0.9 | 5.2 | 0.00 | 0.00 | 0.00 | 65 | 1013.9 |
| 20260502211535 | 66 | 49 | 0.9 | 3.5 | 0.00 | 0.00 | 0.00 | 65 | 1014.0 |